Starlink 35800

operational
NORAD ID: 66291 Int'l Des: 2025-247 Owner: SPXS Country: US Constellation: starlink
NOTLE

Starlink 35800について

説明を読み込み中...

リアルタイム位置

3D地球を読み込み中...

次回通過

高度履歴

Altitude vs Time

uPlot chart will show altitude changes over time

軌道要素

1 66291U 25247AC 25351.78081975 .00028629 00000-0 72288-3 0 9992
2 66291 53.1583 213.2686 0002094 133.3678 226.7502 15.39625634 8528
Epoch: Dec 17, 2025 • Age: 17 hours

現在のステータス

高度 452.2 km
速度 7.65 km/s
衛星直下点 49.76°N, 1.33°E
打ち上げ日 Oct 31, 2025
運用期間 0.1 years
タイプ internet

技術仕様

分類 Payload
質量 575.00 kg
乾燥質量 530.00 kg
総質量 575.00 kg
長さ 0.30 m
直径 4.10 m
スパン 29.00 m
形状 Box + pan
製造者 SPXS
バスタイプ Starlink V2MO
フェーズステータス In Orbit
所有者/国 SPXS/US

大規模コンステレーション

Loading constellations...